Location: Unnamed
(49.2205°N, 28.4120°E)
Time: 14:56:25
(UTC+03:00)

ISS - Pass Details

Date: 23 April 2026
Orbit: 414 x 424 km, 51.6° (Epoch: 18 May)

Event Time Altitude Azimuth Distance (km) Brightness Sun altitude
Exits shadow 04:10:22 24° 172° (S) 922 -2.4 -16.0°
Maximum altitude 04:11:16 27° 144° (SE) 841 -2.3 -15.9°
Drops below altitude 10° 04:14:10 10° 84° (E) 1,505 -0.1 -15.6°
Sets 04:16:28 0° 72° (ENE) 2,376 1.3 -15.3°
